[[{"header":{"parameterUnit":"m.s-1","parameterCategory":1,"la1":30.2991,"la2":30.254,"lo1":-89.0895,"lo2":-89.0444,"dy":0.0017,"dx":0.0017,"nx":28,"ny":28,"refTime":"2023-07-25T09:00:00:Z","depth":0,"parameterNumber":2,"parameterNumberName":"U-component_of_WINDS"},"data":[0,0,0,0,0,0,0,0,0,0,0,0,0,0,0,0,0,0,0,0,0,0,0,0,0,0,0,0,0,0,0,0,0,0,0,0,0,0,0,0,0,0,0,0,0,0,0,0,0,0,0,0,0,0,0,0,0,0,0.2167,0.2169,0,0.2379,0.2381,0.2384,0.2463,0.2462,0.2462,0.2461,0.2684,0.269,0.2697,0,0,0,0,0,0,0,0,0,0,0,0,0,0.1835,0.184,0.2167,0.217,0.2172,0.2379,0.2381,0.2384,0.2463,0.2462,0.2462,0.2461,0.2682,0.2689,0.2697,0,0,0,0,0,0,0,0,0,0,0,0,0,0.2006,0.1842,0.2167,0.2236,0.2245,0.2378,0.2382,0.2385,0.2463,0.2462,0.2461,0.246,0.2679,0.2689,0.2698,0.2779,0,0,0.2728,0.2733,0,0,0,0,0,0,0,0,0.1996,0.2018,0.2223,0.2232,0.2241,0.2393,0.2346,0.2518,0.2464,0.2381,0.2461,0.246,0.2588,0.2606,0.2648,0.279,0.2799,0.2729,0.2735,0.2739,0.2742,0,0,0,0,0,0,0,0.1984,0.201,0.2251,0.2226,0.2237,0.2258,0.2282,0.2379,0.2488,0.2388,0.2394,0.2418,0.2593,0.2638,0.2654,0.2803,0.2729,0.2738,0.2744,0.2748,0.3021,0.3022,0,0,0,0,0,0,0.196,0.1999,0.2244,0.2257,0.2114,0.2265,0.2291,0.2346,0.2487,0.2507,0.2418,0.2421,0.2622,0.2642,0.2662,0.2765,0.2739,0.2749,0.2754,0.3019,0.3021,0.3023,0,0,0,0,0,0,0.1953,0.1981,0.2236,0.213,0.2164,0.2272,0.2333,0.235,0.2395,0.251,0.253,0.2444,0.2622,0.2648,0.2749,0.2774,0.2753,0.2762,0.3018,0.302,0.3022,0.2973,0,0,0,0,0,0,0.1943,0.1978,0.2009,0.213,0.2169,0.2318,0.2334,0.2355,0.2412,0.2417,0.2539,0.2559,0.2623,0.2734,0.2759,0.2787,0.277,0.3016,0.3019,0.3021,0.2973,0.2973,0.2973,0,0,0,0,0,0.1931,0.1989,0.201,0.204,0.221,0.2319,0.2342,0.2413,0.2413,0.2446,0.2519,0.2555,0.2767,0.2743,0.2772,0.2804,0.3015,0.3018,0.3021,0.2973,0.2973,0.2973,0,0,0,0,0,0,0.187,0.2006,0.2031,0.213,0.2212,0.2332,0.2376,0.2411,0.2497,0.2498,0.2584,0.2611,0.2705,0.2765,0.2736,0.2889,0.2893,0.2902,0.2847,0.2848,0.2848,0.2832,0.2778,0,0,0,0,0,0.1868,0.1944,0.2059,0.2134,0.2174,0.2267,0.2318,0.2365,0.2455,0.249,0.2571,0.2658,0.2744,0.28,0.2885,0.2981,0.3009,0.3017,0.3017,0.3017,0.3024,0.3078,0.3083,0.3033,0.3033,0.3032,0,0,0.1865,0.1948,0.1991,0.2124,0.2194,0.2271,0.2296,0.2378,0.2437,0.2504,0.2603,0.2665,0.2768,0.2866,0.2914,0.2919,0.3044,0.3021,0.302,0.3027,0.3082,0.3086,0.3091,0.3035,0.3034,0.3034,0,0,0.1899,0.1969,0.2039,0.2107,0.2211,0.2273,0.2289,0.2404,0.2447,0.2547,0.2599,0.2671,0.2817,0.2888,0.2943,0.3001,0.3037,0.3027,0.3028,0.308,0.3084,0.3087,0.3108,0.3114,0.3033,0.3033,0.3033,0,0.1882,0.1999,0.2071,0.2149,0.2206,0.2268,0.234,0.2403,0.253,0.2568,0.2572,0.2756,0.283,0.2945,0.2958,0.3001,0.3023,0.3013,0.3077,0.3082,0.3086,0.3106,0.3114,0.3031,0.3031,0.3031,0.3031,0,0.1974,0.2054,0.2099,0.2217,0.2279,0.2353,0.2437,0.2492,0.2533,0.2594,0.2696,0.2786,0.289,0.2921,0.2963,0.3042,0.3041,0.306,0.3066,0.3088,0.3108,0.3117,0.3028,0.3029,0.3029,0.303,0,0,0.1977,0.2132,0.2147,0.2201,0.2319,0.2383,0.246,0.256,0.2604,0.269,0.2757,0.2878,0.2895,0.2958,0.3008,0.3054,0.3092,0.3067,0.3071,0.3068,0.3184,0.3169,0.3177,0.3117,0.3118,0.312,0.3175,0,0.2026,0.2164,0.2231,0.2341,0.2416,0.2474,0.2542,0.2622,0.268,0.2754,0.282,0.2904,0.292,0.2958,0.3005,0.3077,0.3117,0.3075,0.3181,0.3184,0.3153,0.3188,0.3173,0.3221,0.3183,0.3185,0.3186,0,0.2102,0.2184,0.23,0.2408,0.2442,0.2501,0.2597,0.2666,0.2758,0.2797,0.2865,0.2914,0.2998,0.2997,0.3114,0.3083,0.3131,0.3173,0.3176,0.3189,0.3186,0.3201,0.3238,0.3244,0.3199,0.3198,0.3197,0,0.2091,0.2231,0.2319,0.2363,0.2491,0.2531,0.2586,0.2677,0.2732,0.2816,0.2853,0.2946,0.2998,0.3069,0.3142,0.3135,0.3252,0.3257,0.3288,0.3286,0.331,0.3308,0.3354,0.3341,0.334,0.334,0.334,0,0.2139,0.2208,0.2315,0.2369,0.2448,0.2524,0.26,0.2661,0.274,0.2807,0.2865,0.2927,0.3019,0.3093,0.315,0.3238,0.3261,0.3296,0.331,0.3291,0.3286,0.3323,0.3322,0.3342,0.3342,0.3341,0.3341,0,0.2141,0.2216,0.2315,0.2426,0.2456,0.2509,0.2606,0.266,0.2721,0.2805,0.2829,0.2925,0.3015,0.3094,0.3214,0.3252,0.3342,0.336,0.331,0.3318,0.3343,0.334,0.3416,0.343,0.3406,0.3406,0.3406,0,0.2167,0.2221,0.2337,0.2385,0.2438,0.2515,0.2571,0.2647,0.2703,0.2811,0.2853,0.2946,0.3024,0.3165,0.3246,0.3338,0.3358,0.3379,0.3373,0.3351,0.3358,0.3354,0.336,0.3378,0.3378,0.3378,0.3378,0,0.2204,0.2237,0.2314,0.2404,0.2468,0.2543,0.262,0.2656,0.2747,0.2807,0.2898,0.2958,0.3079,0.3171,0.327,0.3329,0.3369,0.3379,0.3391,0.3371,0.334,0.3357,0.3309,0.3377,0.3377,0.3377,0.3377,0.3377,0.2219,0.2268,0.2357,0.2441,0.2506,0.2576,0.2632,0.2699,0.2775,0.2877,0.2918,0.3011,0.3101,0.3238,0.3296,0.3371,0.3378,0.3395,0.34,0.3402,0.3399,0.3327,0.3389,0.3389,0.339,0.339,0.339,0,0.2258,0.2317,0.2393,0.2497,0.2563,0.2592,0.2678,0.2731,0.2811,0.2891,0.2966,0.307,0.3159,0.3246,0.3339,0.3382,0.3402,0.3404,0.3402,0.3414,0.3387,0.3367,0.3386,0.3386,0.3386,0.3386,0.3386,0.3386,0.2286,0.2372,0.2416,0.2534,0.2594,0.2683,0.273,0.2795,0.2858,0.2971,0.3044,0.3099,0.3182,0.3281,0.3364,0.3388,0.342,0.3416,0.3444,0.3417,0.3417,0.3416,0.3398,0.3422,0.3422,0.3465,0.3466,0.3466]},{"header":{"parameterUnit":"m.s-1","parameterCategory":1,"la1":30.2991,"la2":30.254,"lo1":-89.0895,"lo2":-89.0444,"dy":0.0017,"dx":0.0017,"nx":28,"ny":28,"refTime":"2023-07-25T09:00:00:Z","depth":0,"parameterNumber":3,"parameterNumberName":"V-component_of_WINDS"},"data":[0,0,0,0,0,0,0,0,0,0,0,0,0,0,0,0,0,0,0,0,0,0,0,0,0,0,0,0,0,0,0,0,0,0,0,0,0,0,0,0,0,0,0,0,0,0,0,0,0,0,0,0,0,0,0,0,0,0,2.6134,2.6134,0,2.609,2.6089,2.6089,2.609,2.6091,2.6092,2.6092,2.6041,2.6039,2.6038,0,0,0,0,0,0,0,0,0,0,0,0,0,2.6215,2.6213,2.6134,2.6134,2.6133,2.609,2.6089,2.6089,2.609,2.6091,2.6092,2.6092,2.6042,2.604,2.6037,0,0,0,0,0,0,0,0,0,0,0,0,0,2.6176,2.6213,2.6134,2.6129,2.6128,2.609,2.6089,2.6088,2.609,2.6091,2.6092,2.6093,2.6043,2.604,2.6037,2.6,0,0,2.6028,2.6027,0,0,0,0,0,0,0,0,2.6178,2.6173,2.613,2.6129,2.6128,2.6097,2.6099,2.6058,2.609,2.6104,2.6092,2.6093,2.6059,2.6054,2.6044,2.5998,2.5995,2.6028,2.6026,2.6025,2.6024,0,0,0,0,0,0,0,2.6181,2.6175,2.6116,2.613,2.6128,2.6127,2.6122,2.6091,2.6076,2.6103,2.6103,2.6098,2.6058,2.6047,2.6043,2.5995,2.6028,2.6025,2.6024,2.6022,2.5912,2.5911,0,0,0,0,0,0,2.6185,2.6177,2.6118,2.6115,2.6156,2.6124,2.6119,2.6106,2.6077,2.6074,2.6097,2.6098,2.6051,2.6046,2.6041,2.5993,2.6025,2.6022,2.602,2.5913,2.5911,2.591,0,0,0,0,0,0,2.6187,2.618,2.612,2.6146,2.6138,2.6122,2.6107,2.6104,2.6093,2.6073,2.6069,2.6089,2.6052,2.6045,2.601,2.5991,2.6021,2.6018,2.5914,2.5912,2.5911,2.5898,0,0,0,0,0,0,2.6189,2.6181,2.6168,2.6146,2.6137,2.6091,2.6106,2.6103,2.6088,2.6089,2.6064,2.606,2.6052,2.6014,2.6007,2.5988,2.6016,2.5916,2.5913,2.5911,2.59,2.5896,2.5893,0,0,0,0,0,2.6192,2.6166,2.6168,2.616,2.6121,2.609,2.6085,2.6077,2.6087,2.6073,2.6059,2.6061,2.5995,2.601,2.6002,2.5982,2.5917,2.5914,2.5912,2.5902,2.5897,2.5893,0,0,0,0,0,0,2.6185,2.6163,2.6164,2.6131,2.6112,2.6091,2.6073,2.6073,2.6051,2.6052,2.6042,2.6036,2.6,2.5988,2.6006,2.5943,2.5957,2.5952,2.5952,2.5947,2.5944,2.5947,2.6013,0,0,0,0,0,2.618,2.6159,2.614,2.6111,2.6102,2.6089,2.6075,2.6071,2.6051,2.6043,2.6027,2.6006,2.598,2.5964,2.5939,2.5899,2.5891,2.5881,2.5877,2.5874,2.587,2.5844,2.5838,2.5901,2.5901,2.5901,0,0,2.6168,2.6154,2.6141,2.611,2.6095,2.6071,2.6083,2.6057,2.6038,2.6039,2.6004,2.5992,2.5967,2.5929,2.5911,2.5917,2.5851,2.5871,2.5869,2.5866,2.5841,2.5835,2.583,2.59,2.59,2.59,0,0,2.6134,2.6123,2.6096,2.6081,2.6059,2.6051,2.6044,2.6022,2.6014,2.598,2.5979,2.5955,2.5912,2.5893,2.5878,2.5836,2.5835,2.5828,2.5808,2.5783,2.5778,2.5774,2.5755,2.5749,2.5824,2.5824,2.5824,0,2.6122,2.6088,2.6082,2.6056,2.6041,2.6042,2.6014,2.5999,2.5969,2.5958,2.5966,2.591,2.5894,2.5849,2.5839,2.5828,2.5817,2.583,2.578,2.5775,2.5771,2.5753,2.5747,2.5823,2.5823,2.5823,2.5823,0,2.6072,2.6048,2.6029,2.6001,2.5984,2.5957,2.5946,2.5929,2.5926,2.5915,2.5878,2.5859,2.5829,2.5818,2.5815,2.5772,2.5776,2.5782,2.5796,2.5764,2.5747,2.574,2.5822,2.5822,2.5822,2.5822,0,0,2.6032,2.6001,2.5994,2.5981,2.5956,2.5936,2.5907,2.5879,2.5864,2.5843,2.5817,2.5779,2.5784,2.5767,2.5761,2.574,2.5703,2.5748,2.5747,2.5738,2.5651,2.5645,2.5638,2.5703,2.5702,2.5701,2.5652,0,2.5994,2.5945,2.5939,2.5895,2.587,2.587,2.5845,2.5825,2.5814,2.579,2.5777,2.575,2.576,2.5749,2.5728,2.5712,2.5685,2.5716,2.5676,2.5674,2.568,2.5629,2.5623,2.5578,2.5646,2.5645,2.5644,0,2.5942,2.5921,2.5874,2.5851,2.584,2.5818,2.579,2.5769,2.5745,2.5738,2.5719,2.5715,2.5683,2.5699,2.5652,2.5673,2.5656,2.5646,2.5644,2.5638,2.5656,2.5619,2.5564,2.5556,2.5634,2.5635,2.5636,0,2.5914,2.5874,2.584,2.5829,2.5801,2.5785,2.5772,2.575,2.5733,2.5708,2.5696,2.5668,2.5651,2.5628,2.5615,2.5629,2.5568,2.5584,2.5559,2.5559,2.5544,2.5545,2.5483,2.5538,2.5538,2.5538,2.5538,0,2.587,2.5841,2.5827,2.5806,2.5772,2.5764,2.5731,2.5718,2.5698,2.5672,2.5671,2.5646,2.5633,2.5605,2.5595,2.5556,2.5549,2.554,2.5538,2.5539,2.554,2.5526,2.5528,2.5536,2.5537,2.5537,2.5537,0,2.5833,2.5823,2.5785,2.5762,2.5755,2.5731,2.571,2.5688,2.5677,2.5645,2.5636,2.5618,2.5586,2.5572,2.5532,2.5525,2.5479,2.548,2.5487,2.5485,2.546,2.5461,2.5384,2.5372,2.5438,2.5437,2.5437,0,2.5805,2.5782,2.5757,2.574,2.5727,2.5701,2.5683,2.5674,2.5655,2.5625,2.5606,2.5574,2.5548,2.5495,2.5477,2.5445,2.5443,2.5419,2.5438,2.544,2.5439,2.544,2.5436,2.5414,2.5414,2.5413,2.5413,0,2.5754,2.575,2.5726,2.5699,2.5678,2.5656,2.5634,2.562,2.5607,2.5585,2.5553,2.5532,2.5491,2.5458,2.5425,2.5409,2.5407,2.5407,2.5399,2.5399,2.5403,2.5397,2.5474,2.5408,2.5409,2.5409,2.5409,2.5409,2.5719,2.5698,2.5676,2.5648,2.5631,2.561,2.5588,2.5574,2.5547,2.5514,2.5509,2.5474,2.5448,2.5404,2.5386,2.5356,2.5362,2.5351,2.5348,2.5344,2.5341,2.541,2.535,2.5351,2.5351,2.5351,2.5351,0,2.5666,2.5651,2.5626,2.5596,2.5573,2.5576,2.5551,2.5531,2.55,2.5478,2.5452,2.5412,2.538,2.5359,2.5325,2.5304,2.5302,2.5295,2.5295,2.5291,2.534,2.5349,2.5297,2.5298,2.5298,2.5298,2.5298,2.5298,2.5635,2.5599,2.5592,2.5546,2.5531,2.5497,2.5483,2.5462,2.5444,2.5401,2.5374,2.5361,2.5338,2.5302,2.5271,2.5265,2.5251,2.5243,2.5237,2.5283,2.5288,2.5293,2.5302,2.5241,2.5241,2.5191,2.5191,2.519]}]]